Hourly Weather Trondheim

Today, 1 August, Sunday

Time Temperature Precipitation Wind Pressure Humidity
00:00 +12°C° 0.1 mm 2 mps 746 mmHg 91%
01:00 +10°C° 0 mm 2 mps 746 mmHg 92%
02:00 +10°C° 0.1 mm 2 mps 746 mmHg 92%
03:00 +10°C° 0.1 mm 2 mps 746 mmHg 92%
04:00 +10°C° 0.1 mm 2 mps 746 mmHg 91%
05:00 +10°C° 0.1 mm 2 mps 746 mmHg 89%
06:00 +10°C° 0.1 mm 2 mps 747 mmHg 87%
07:00 +12°C° 0 mm 2 mps 747 mmHg 85%
08:00 +12°C° 0.1 mm 2 mps 747 mmHg 83%
09:00 +12°C° 0.1 mm 2 mps 747 mmHg 81%
10:00 +12°C° 0.1 mm 3 mps 748 mmHg 78%
11:00 +12°C° 0.2 mm 3 mps 748 mmHg 77%
12:00 +12°C° 0.2 mm 3 mps 748 mmHg 75%
13:00 +13°C° 0 mm 4 mps 748 mmHg 76%
14:00 +12°C° 0.2 mm 4 mps 748 mmHg 77%
15:00 +12°C° 0.2 mm 4 mps 748 mmHg 77%
16:00 +12°C° 0.2 mm 4 mps 748 mmHg 77%
17:00 +12°C° 0.1 mm 4 mps 749 mmHg 79%
18:00 +11°C° 0.1 mm 4 mps 749 mmHg 81%
19:00 +11°C° 0.1 mm 4 mps 749 mmHg 83%
20:00 +10°C° 0.1 mm 3 mps 749 mmHg 85%
21:00 +10°C° 0.1 mm 3 mps 750 mmHg 88%
22:00 +9°C° 0.1 mm 2 mps 750 mmHg 90%
23:00 +9°C° 0.1 mm 2 mps 750 mmHg 91%

Tomorrow, 2 August, Monday

Time Temperature Precipitation Wind Pressure Humidity
00:00 +9°C° 0.1 mm 2 mps 750 mmHg 91%
01:00 +9°C° 0.1 mm 1 mps 750 mmHg 91%
02:00 +9°C° 0.1 mm 1 mps 750 mmHg 91%
03:00 +9°C° 0.1 mm 1 mps 750 mmHg 90%
04:00 +8°C° 0.1 mm 1 mps 751 mmHg 90%
05:00 +9°C° 0.1 mm 1 mps 751 mmHg 86%
06:00 +10°C° 0.1 mm 1 mps 751 mmHg 83%
07:00 +11°C° 0.1 mm 1 mps 751 mmHg 80%
08:00 +12°C° 0.1 mm 2 mps 751 mmHg 75%
09:00 +12°C° 0.1 mm 2 mps 751 mmHg 69%
10:00 +13°C° 0.1 mm 2 mps 751 mmHg 64%
11:00 +13°C° 0.1 mm 3 mps 751 mmHg 61%
12:00 +13°C° 0.1 mm 3 mps 751 mmHg 57%
13:00 +13°C° 0.1 mm 4 mps 751 mmHg 54%
14:00 +13°C° 0 mm 4 mps 751 mmHg 55%
15:00 +13°C° 0 mm 4 mps 751 mmHg 56%
16:00 +13°C° 0 mm 4 mps 752 mmHg 57%
17:00 +12°C° 0 mm 3 mps 752 mmHg 60%
18:00 +12°C° 0 mm 3 mps 752 mmHg 62%
19:00 +12°C° 0 mm 3 mps 752 mmHg 64%
20:00 +10°C° 0 mm 2 mps 752 mmHg 72%
21:00 +9°C° 0 mm 1 mps 752 mmHg 80%
22:00 +8°C° 0 mm 1 mps 753 mmHg 87%
23:00 +8°C° 0 mm 1 mps 753 mmHg 89%

Day after tomorrow, 3 August, Tuesday

Time Temperature Precipitation Wind Pressure Humidity
00:00 +7°C° 0 mm 1 mps 753 mmHg 90%
01:00 +7°C° 0 mm 1 mps 753 mmHg 92%
02:00 +7°C° 0 mm 1 mps 753 mmHg 91%
03:00 +7°C° 0 mm 1 mps 753 mmHg 91%
04:00 +7°C° 0 mm 1 mps 753 mmHg 91%
05:00 +8°C° 0 mm 1 mps 753 mmHg 86%
06:00 +9°C° 0 mm 0 mps 753 mmHg 80%
07:00 +10°C° 0 mm 0 mps 753 mmHg 74%
08:00 +11°C° 0 mm 0 mps 753 mmHg 69%
09:00 +13°C° 0 mm 1 mps 753 mmHg 64%
10:00 +14°C° 0 mm 1 mps 753 mmHg 58%
11:00 +14°C° 0 mm 1 mps 753 mmHg 57%
12:00 +14°C° 0 mm 1 mps 753 mmHg 55%
13:00 +15°C° 0 mm 2 mps 753 mmHg 54%
14:00 +15°C° 0 mm 2 mps 753 mmHg 53%
15:00 +15°C° 0 mm 2 mps 753 mmHg 53%
16:00 +15°C° 0 mm 2 mps 753 mmHg 53%
17:00 +15°C° 0 mm 2 mps 753 mmHg 55%
18:00 +14°C° 0 mm 2 mps 753 mmHg 58%
19:00 +14°C° 0 mm 2 mps 754 mmHg 60%
20:00 +12°C° 0 mm 1 mps 754 mmHg 67%
21:00 +11°C° 0 mm 1 mps 754 mmHg 75%
22:00 +8°C° 0 mm 0 mps 754 mmHg 82%
23:00 +7°C° 0 mm 0 mps 754 mmHg 83%

4 August, Wednesday

Time Temperature Precipitation Wind Pressure Humidity
00:00 +7°C° 0 mm 0 mps 754 mmHg 85%
01:00 +6°C° 0 mm 0 mps 754 mmHg 86%
02:00 +7°C° 0 mm 1 mps 754 mmHg 87%
03:00 +7°C° 0 mm 1 mps 754 mmHg 87%
04:00 +7°C° 0 mm 1 mps 754 mmHg 87%
05:00 +9°C° 0 mm 1 mps 754 mmHg 80%
06:00 +11°C° 0 mm 1 mps 754 mmHg 73%
07:00 +11°C° 0 mm 0 mps 754 mmHg 66%
08:00 +13°C° 0 mm 0 mps 754 mmHg 61%
09:00 +14°C° 0 mm 0 mps 754 mmHg 57%
10:00 +15°C° 0 mm 0 mps 754 mmHg 52%
11:00 +18°C° 0 mm 1 mps 754 mmHg 50%
12:00 +19°C° 0 mm 1 mps 754 mmHg 47%
13:00 +19°C° 0 mm 1 mps 754 mmHg 45%
14:00 +19°C° 0 mm 1 mps 754 mmHg 46%
15:00 +18°C° 0 mm 2 mps 754 mmHg 47%
16:00 +18°C° 0 mm 2 mps 754 mmHg 48%
17:00 +17°C° 0 mm 2 mps 754 mmHg 53%
18:00 +16°C° 0 mm 2 mps 754 mmHg 57%
19:00 +15°C° 0 mm 1 mps 754 mmHg 62%
20:00 +14°C° 0 mm 1 mps 754 mmHg 66%
21:00 +13°C° 0 mm 1 mps 754 mmHg 70%
22:00 +11°C° 0 mm 0 mps 754 mmHg 74%
23:00 +10°C° 0 mm 0 mps 754 mmHg 75%

5 August, Thursday

Time Temperature Precipitation Wind Pressure Humidity
00:00 +10°C° 0 mm 0 mps 754 mmHg 75%
01:00 +10°C° 0 mm 0 mps 754 mmHg 75%
02:00 +10°C° 0 mm 0 mps 754 mmHg 75%
03:00 +11°C° 0 mm 1 mps 754 mmHg 76%
04:00 +11°C° 0 mm 1 mps 753 mmHg 76%
05:00 +12°C° 0 mm 1 mps 753 mmHg 72%
06:00 +12°C° 0 mm 0 mps 753 mmHg 68%
07:00 +13°C° 0 mm 0 mps 753 mmHg 64%
08:00 +15°C° 0 mm 0 mps 753 mmHg 61%
09:00 +18°C° 0 mm 1 mps 753 mmHg 58%
10:00 +19°C° 0 mm 1 mps 752 mmHg 55%
11:00 +20°C° 0 mm 1 mps 752 mmHg 53%
12:00 +21°C° 0 mm 1 mps 752 mmHg 50%
13:00 +22°C° 0 mm 1 mps 752 mmHg 48%
14:00 +22°C° 0.1 mm 1 mps 751 mmHg 51%
15:00 +21°C° 0.1 mm 1 mps 751 mmHg 55%
16:00 +21°C° 0.1 mm 1 mps 751 mmHg 58%
17:00 +20°C° 0.2 mm 1 mps 751 mmHg 65%
18:00 +19°C° 0.2 mm 1 mps 751 mmHg 72%
19:00 +18°C° 0.2 mm 1 mps 751 mmHg 78%
20:00 +16°C° 0.5 mm 1 mps 751 mmHg 82%
21:00 +15°C° 0.5 mm 1 mps 751 mmHg 86%
22:00 +14°C° 0.5 mm 1 mps 752 mmHg 89%
23:00 +13°C° 0.2 mm 1 mps 752 mmHg 90%

6 August, Friday

Time Temperature Precipitation Wind Pressure Humidity
00:00 +13°C° 0.2 mm 1 mps 752 mmHg 90%
01:00 +13°C° 0.2 mm 1 mps 752 mmHg 90%
02:00 +13°C° 0 mm 1 mps 752 mmHg 90%
03:00 +12°C° 0 mm 1 mps 752 mmHg 90%
04:00 +12°C° 0 mm 1 mps 752 mmHg 89%
05:00 +13°C° 0 mm 1 mps 752 mmHg 86%
06:00 +14°C° 0 mm 1 mps 752 mmHg 83%
07:00 +15°C° 0 mm 1 mps 752 mmHg 80%
08:00 +18°C° 0 mm 1 mps 752 mmHg 72%
09:00 +19°C° 0 mm 1 mps 752 mmHg 63%
10:00 +20°C° 0 mm 2 mps 751 mmHg 54%
11:00 +21°C° 0 mm 2 mps 751 mmHg 50%
12:00 +23°C° 0 mm 2 mps 751 mmHg 45%
13:00 +24°C° 0 mm 2 mps 750 mmHg 41%
14:00 +24°C° 0 mm 2 mps 750 mmHg 41%
15:00 +25°C° 0 mm 2 mps 750 mmHg 40%
16:00 +25°C° 0 mm 3 mps 750 mmHg 40%
17:00 +24°C° 0 mm 3 mps 750 mmHg 44%
18:00 +22°C° 0 mm 3 mps 750 mmHg 49%
19:00 +21°C° 0 mm 3 mps 750 mmHg 53%
20:00 +20°C° 0 mm 3 mps 750 mmHg 57%
21:00 +18°C° 0 mm 3 mps 750 mmHg 61%
22:00 +17°C° 0 mm 3 mps 750 mmHg 64%
23:00 +16°C° 0 mm 3 mps 750 mmHg 67%
Show more